Location: Home
(42.5358°N, 72.7383°W)
Time: 08:15:10
(UTC-04:00)

Envisat - Visible Passes

Search period start: 24 July 2024 00:00
Search period end: 03 August 2024 00:00
Orbit: 762 x 764 km, 98.3° (Epoch: 24 July)

Date Brightness Start Highest point End Pass type
(mag) Time Alt. Az. Time Alt. Az. Time Alt. Az.
24 Jul 4.0 03:34:45 10° NNE 03:39:34 41° E 03:44:04 11° SSE visible
25 Jul 5.2 02:58:21 10° NE 03:01:53 19° E 03:05:24 10° SE visible
25 Jul 3.3 04:36:14 10° N 04:41:09 53° WNW 04:46:04 10° SSW visible
26 Jul 3.2 03:58:44 10° NNE 04:03:49 71° ESE 04:08:25 13° S visible
27 Jul 4.5 03:21:46 10° NNE 03:26:16 31° E 03:30:31 11° SSE visible
27 Jul 3.9 05:00:43 10° N 05:05:11 32° WNW 05:09:39 10° SW visible
28 Jul 5.4 02:45:54 10° ENE 02:48:32 14° E 02:51:09 10° ESE visible
28 Jul 3.0 04:22:56 10° N 04:27:59 70° WNW 04:32:46 11° SSW visible
29 Jul 3.6 03:45:37 10° NNE 03:50:35 53° E 03:54:52 14° S visible
30 Jul 4.9 03:08:54 10° NE 03:12:58 24° E 03:16:58 10° SSE visible
30 Jul 3.6 04:47:19 10° N 04:52:04 42° WNW 04:56:48 10° SW visible
31 Jul 5.7 02:34:38 10° E 02:35:08 10° E 02:35:39 10° E visible
31 Jul 3.0 04:09:41 10° NNE 04:14:47 89° E 04:19:12 14° SSW visible
01 Aug 4.1 03:32:32 10° NNE 03:37:19 40° E 03:41:18 14° SSE visible
01 Aug 4.2 05:11:56 10° N 05:16:03 26° WNW 05:20:11 10° WSW visible
02 Aug 5.2 02:56:11 10° NE 02:59:37 18° E 03:03:03 10° SE visible
02 Aug 3.2 04:33:58 10° N 04:38:55 55° WNW 04:43:32 12° SSW visible
